Regional Weather Roundup
Issued by NWS

Home | Current Version | Previous Version | Text Only | Print | Product List | Glossary On
Versions: 1 2 3 4 5 6 7 8 9 10 11 12 13 14 15 16 17 18 19 20 21 22 23 24 25 26 27 28 29 30 31 32 33 34 35 36 37 38 39 40 41 42 43 44 45 46 47 48 49 50
000
ASUS43 KIND 020809
RWRIN

WEATHER ROUNDUP FOR INDIANA
NATIONAL WEATHER SERVICE INDIANAPOLIS IN
400 AM EDT SUN AUG 02 2015

NOTE: "FAIR" INDICATES FEW OR NO CLOUDS BELOW 12,000 FEET WITH NO
SIGNIFICANT WEATHER AND/OR OBSTRUCTIONS TO VISIBILITY.

* - STATION DOES NOT REPORT WEATHER SUCH AS PRECIPITATION OR FOG.

+ - STATION NOT QUALITY CONTROLLED BY THE NATIONAL WEATHER SERVICE.
    USE DATA WITH CAUTION...ESPECIALLY DEWPOINT AND RELATIVE
    HUMIDITY OBSERVATIONS.

INZ001>003-010>013-019-020-020900-
NORTHWEST INDIANA

CITY           SKY/WX    TMP DP  RH WIND       PRES   REMARKS
GARY /AIRPORT/ CLEAR     72  65  81 SW3       29.90S
KNOX *+        CLEAR     64  63  94 SW6       29.91S
LA PORTE +     CLEAR     68  67  98 SW5       29.91F
MICHIGAN CITY+ CLEAR     68  61  77 SW6       29.90S
MONTICELLO +   CLEAR     66  64  91 S6        29.93S
RENSSELAER +   CLEAR     64  63  94 SW5       29.93F
VALPARAISO     CLEAR     68  63  84 SW7       29.92S

$$

LMZ046-743>745-020900-
SOUTHERN LAKE MICHIGAN

STATION/POSITION TIME  TEMP    WIND        PRES    WAVE
                       AIR SEA DIR/SP/G            HT
                 (UTC) (F)     (DEG/KT/KT) (MB)    (FT)
BURNS HARBOR     0700   74     210/ 10/ 15 1012.5F
MICHIGAN CITY    0700   72     180/ 11/ 13   N/A
5NW MICH CITY    0800   74 74  240/ 14/ 16   N/A     2

$$

INZ004-005-014>016-021>024-020900-
NORTH CENTRAL INDIANA

CITY           SKY/WX    TMP DP  RH WIND       PRES   REMARKS
GOSHEN         CLEAR     66  62  87 SW8       29.91S
LOGANSPORT +   CLEAR     64  59  82 SW7       29.95S
PERU/GRISSOM   CLEAR     65  61  87 SW8       29.94S
ROCHESTER +    CLEAR     70  63  78 SW6       29.93S
SOUTH BEND     CLEAR     69  64  84 SW9       29.91S
WARSAW +       CLEAR     68  63  83 SW7       29.92S

$$

INZ006>009-017-018-025>027-020900-
NORTHEAST INDIANA

CITY           SKY/WX    TMP DP  RH WIND       PRES   REMARKS
ANGOLA *+      CLEAR     66  63  88 CALM      29.91S
AUBURN +       CLEAR     68  61  77 SW6       29.93S
FORT WAYNE     PTCLDY    66  61  84 SW8       29.93F
HUNTINGTON +   CLEAR     67  62  82 SW3       29.93F

$$

INZ028-029-035-036-043>045-051>053-020900-
WEST CENTRAL INDIANA

CITY           SKY/WX    TMP DP  RH WIND       PRES   REMARKS
CRAWFORDSVL +  CLEAR     62  60  94 SW5         N/A
GREENCASTLE +  PTCLDY    63  57  82 CALM      29.99S
LAFAYETTE      CLEAR     63  61  93 CALM      29.94F
TERRE HAUTE    PTCLDY    63  60  90 CALM      29.97F

$$

INZ030>032-037>040-046>048-054>057-064-065-020900-
CENTRAL INDIANA

CITY           SKY/WX    TMP DP  RH WIND       PRES   REMARKS
FISHERS *+     MOCLDY    66  61  82 SW5       29.97F
FRANKFORT +    CLEAR    N/A N/A N/A S3        29.98F
GREENWOOD *+   MOCLDY    63  57  82 CALM      29.99F
INDIANAPOLIS   MOCLDY    65  59  81 SW6       29.96F
-EAGLE CREEK   PTCLDY    67  59  75 SW5       29.97F
KOKOMO *+      CLEAR     66  57  72 SW8       29.96S
MARION +       CLEAR     63  58  84 SW7       29.96S
MT COMFORT *+  MOCLDY    64  64 100 CALM      29.99S
SHELBYVILLE    MOCLDY    65  61  87 CALM      29.98F
ZIONSVILLE +   PTCLDY    64  59  82 SW3       29.98F

$$

INZ033-034-041-042-049-050-058-059-020900-
EAST CENTRAL INDIANA

CITY           SKY/WX    TMP DP  RH WIND       PRES   REMARKS
MUNCIE         PTCLDY    67  58  72 SW7       29.97S

$$

INZ060-061-067>069-081>083-085>088-020900-
SOUTHWEST INDIANA

CITY           SKY/WX    TMP DP  RH WIND       PRES   REMARKS
EVANSVILLE     MOCLDY    67  64  90 CALM      29.99F
HUNTINGBURG *+ MOCLDY    64  61  88 CALM      29.99F
WASHINGTON +   PTCLDY    64  60  88 CALM      29.98S

$$

INZ062-063-066-070>080-084-089>092-020900-
SOUTH CENTRAL AND SOUTHEAST INDIANA

CITY           SKY/WX    TMP DP  RH WIND       PRES   REMARKS
BLOOMINGTON    MOCLDY    63  60  90 CALM      29.99F
MADISON *+     PTCLDY    61  59  94 CALM      30.02S
NORTH VERNON + MOCLDY    64  64 100 CALM      30.00F
SEYMOUR +      PTCLDY    61  61 100 CALM      29.99F

$$



USA.gov is the U.S. government's official web portal to all federal, state and local government web resources and services.